Tracking 27382 objects as of 4-Jun-2023
HD Live streaming from Space Station
objects crossing your sky now

THOR ABLESTAR DEB

Track THOR ABLESTAR DEB now!
10-day predictions


NORAD ID: 410
Int'l Code: 1961-015EK
Perigee: 974.0 km
Apogee: 994.6 km
Inclination: 66.7 °
Period: 104.6 minutes
Semi major axis: 7355 km
RCS: 0.1102 m2 (medium)
Launch date: June 29, 1961
Source: United States (US)
Launch site: AIR FORCE EASTERN TEST RANGE (AFETR)

Note: This is SATELLITE DEBRIS
Your satellite tracking list
Your tracking list is empty




NASA's NSSDC Master Catalog

Two Line Element Set (TLE):
1 00410U 61015EK  23155.48239736  .00000035  00000-0  11224-3 0  9997
2 00410  66.6913 172.3389 0014036 350.0413 124.0740 13.76258978107485
Source of the keplerian elements: AFSPC